Location: Unspecified
(0.0000°N, 0.0000°E)
Time: 18:40:40
(UTC+00:00)

Vanguard 3 - Visible Passes

Search period start: 22 August 2017 00:00
Search period end: 01 September 2017 00:00
Orbit: 508 x 3265 km, 33.3° (Epoch: 22 August)

Date Brightness Start Highest point End Pass type
(mag) Time Alt. Az. Time Alt. Az. Time Alt. Az.
22 Aug 8.7 05:31:08 10° NNW 05:36:22 29° NNE 05:40:04 10° E visible
22 Aug 10.2 18:50:16 10° WSW 19:06:53 76° NW 19:26:58 10° NE visible
22 Aug 10.9 21:08:38 10° W 21:25:21 35° NNW 21:40:55 10° NNE visible
22 Aug 11.2 23:37:22 10° NW 23:45:31 14° NNW 23:46:55 14° NNW visible
23 Aug 9.7 04:17:04 10° NNW 04:22:01 18° NNE 04:25:43 10° ENE visible
23 Aug 10.6 19:50:42 10° WSW 20:07:43 49° NNW 20:26:07 10° NE visible
23 Aug 11.2 22:14:01 10° WNW 22:27:24 21° NNW 22:37:54 12° NNE visible
24 Aug11.200:56:16NNE00:56:16NNE00:42:31NNWvisible
24 Aug 10.3 03:02:36 10° NNW 03:06:52 13° NNE 03:10:20 10° NE visible
24 Aug 8.1 05:14:53 10° NW 05:21:22 43° NNE 05:25:34 10° ESE visible
24 Aug 10.3 18:34:43 10° WSW 18:50:22 68° NW 19:10:26 10° NE visible
24 Aug 11.1 20:53:24 10° W 21:09:17 31° NNW 21:24:44 10° NNE visible
24 Aug 11.2 23:22:01 10° NW 23:30:22 14° NNW 23:33:07 14° N visible
25 Aug 10.8 01:52:46 11° NNE 01:52:46 11° NNE 01:54:08 10° NNE visible
25 Aug 9.4 04:00:06 10° NNW 04:07:06 25° NNE 04:11:45 10° ENE visible
25 Aug 10.8 19:35:22 10° W 19:51:24 44° NNW 20:09:38 10° NE visible
25 Aug 11.3 21:59:03 10° WNW 22:11:51 20° NNW 22:23:21 10° NNE visible
26 Aug 10.2 02:49:23 17° N 02:51:58 19° NNE 02:57:03 10° ENE visible
26 Aug 7.7 04:58:40 10° NW 05:06:19 63° NNE 05:10:53 10° ESE visible
26 Aug 10.4 18:19:20 10° WSW 18:33:59 60° NNW 18:53:45 10° NE visible
26 Aug 11.2 20:38:24 10° WNW 20:53:22 28° NNW 21:08:29 10° NNE visible
26 Aug 11.2 23:06:25 10° NW 23:15:16 15° N 23:18:09 14° N visible
27 Aug 10.8 01:41:17 10° NE 01:41:17 10° NE 01:41:24 10° NE visible
27 Aug 9.0 03:46:00 17° NNW 03:52:05 35° NNE 03:57:28 10° E visible
27 Aug 10.9 19:20:15 10° W 19:35:16 39° NNW 19:53:02 10° NE visible
27 Aug 11.3 21:44:10 10° NW 21:56:25 19° NNW 22:07:42 10° NNE visible
28 Aug 11.3 00:10:47 10° NNW 00:12:42 12° NNW 00:12:42 12° NNW visible
28 Aug 9.9 02:37:50 24° NNE 02:37:50 24° NNE 02:43:11 10° ENE visible
28 Aug 7.4 04:42:33 10° NW 04:51:06 86° NNE 04:56:04 10° SE visible
28 Aug 10.6 18:04:08 10° WSW 18:17:47 53° NNW 18:36:55 10° NE visible
28 Aug 11.3 20:23:35 10° WNW 20:37:35 25° NNW 20:52:12 10° NNE visible
28 Aug 11.2 22:50:35 10° NW 23:00:11 15° N 23:02:36 15° N visible
29 Aug11.001:29:34ENE01:29:34ENE01:07:08NWvisible
29 Aug 8.7 03:34:16 38° NNW 03:36:58 47° NNE 03:42:56 10° ESE visible
29 Aug 11.1 19:05:21 10° W 19:19:18 34° NNW 19:36:20 10° NNE visible
29 Aug 11.3 21:29:17 10° NW 21:41:05 18° N 21:52:12 10° NNE visible
29 Aug 11.3 23:53:37 10° NNW 23:56:58 14° NNW 23:56:58 14° NNW visible
30 Aug 10.0 02:25:52 23° ENE 02:25:52 23° ENE 02:28:58 10° E visible
30 Aug 7.6 04:30:33 26° WNW 04:35:48 74° SW 04:41:08 10° SE visible
30 Aug 10.7 17:49:07 10° W 18:01:47 46° NNW 18:19:59 10° NE visible
30 Aug 11.3 20:08:57 10° WNW 20:21:59 23° NNW 20:35:55 10° NNE visible
30 Aug 11.2 22:34:32 10° NNW 22:45:05 16° N 22:46:46 16° N visible
31 Aug 8.5 03:22:01 61° NE 03:22:01 61° NE 03:28:15 10° ESE visible
31 Aug 8.5 05:27:38 10° W 05:33:41 24° SW 05:37:50 10° SSE visible
31 Aug 11.2 18:50:39 10° WNW 19:03:31 29° NNW 19:19:32 10° NNE visible
31 Aug 11.3 21:14:19 10° NW 21:25:49 18° N 21:36:31 10° NNE visible
